Location: Baili�vre
(50.0696°N, 4.2409°E)
Time: 23:35:06
(UTC+00:00)

Cosmos 2322 Rocket - Pass Details

Date: 08 August 2020
Orbit: 831 x 852 km, 71.0° (Epoch: 23 September)

Event Time Altitude Azimuth Distance (km) Brightness Sun altitude
Rises 21:55:15 0° 331° (NNW) 3,418 7.0 -19.6°
Reaches altitude 10° 21:57:42 10° 332° (NNW) 2,482 5.9 -19.8°
Maximum altitude 22:03:26 82° 60° (ENE) 865 2.2 -20.2°
Enters shadow 22:05:38 40° 144° (SE) 1,246 2.6 -20.3°
